Tracking 29892 objects as of 21-Nov-2024
HD Live streaming from Space Station
objects crossing your sky now

CZ-3C DEB

Track CZ-3C DEB now!


NORAD ID: 44526
Int'l Code: 2010-057BL
Perigee: 490.2 km
Apogee: 32,780.3 km
Inclination: 21.9 °
Period: 578.8 minutes
Semi major axis: 23006 km
RCS: Unknown
Launch date: October 31, 2010
Source: People's Republic of China (PRC)
Launch site: Xichang Space Center, China (XSC)

Note: This is SATELLITE DEBRIS
Your satellite tracking list
Your tracking list is empty




NASA's NSSDC Master Catalog

Two Line Element Set (TLE):
1 44526U 10057BL  24325.33316627  .00000588  00000-0  38588-2 0  9996
2 44526  21.9245 320.1729 7017688 270.3302  16.6281  2.48790453 81953
Source of the keplerian elements: AFSPC